• Em Portugal
  • Lista de países
  • Para 7 dias
  • Temperatura da água
  • Mapas de satélite
  • Mapa do tempo
  • Widgets de tempo
  • user-avatar
    Iniciar Sessão

    Previsão horária em Hrazdan

    Hoje, 23 Setembro, Sábado

    Tempo Temperatura Precipitação Vento Pressão Humidade
    00:00 +14°C° 0,3 mm 2 m/s 614 mmHg 78%
    01:00 +14°C° 0,1 mm 2 m/s 614 mmHg 78%
    02:00 +13°C° 0,1 mm 2 m/s 614 mmHg 78%
    03:00 +13°C° 0,1 mm 2 m/s 614 mmHg 78%
    04:00 +13°C° 0,1 mm 2 m/s 614 mmHg 78%
    05:00 +12°C° 0,1 mm 1 m/s 614 mmHg 78%
    06:00 +12°C° 0,1 mm 1 m/s 614 mmHg 78%
    07:00 +15°C° 0 mm 1 m/s 615 mmHg 68%
    08:00 +18°C° 0 mm 1 m/s 616 mmHg 58%
    09:00 +19°C° 0 mm 2 m/s 617 mmHg 48%
    10:00 +20°C° 0 mm 2 m/s 617 mmHg 44%
    11:00 +23°C° 0 mm 2 m/s 617 mmHg 39%
    12:00 +24°C° 0 mm 2 m/s 618 mmHg 35%
    13:00 +24°C° 0,1 mm 2 m/s 617 mmHg 35%
    14:00 +24°C° 0,1 mm 3 m/s 617 mmHg 35%
    15:00 +24°C° 0,1 mm 3 m/s 617 mmHg 35%
    16:00 +21°C° 0,6 mm 2 m/s 616 mmHg 44%
    17:00 +19°C° 0,6 mm 2 m/s 615 mmHg 53%
    18:00 +18°C° 0,6 mm 1 m/s 615 mmHg 62%
    19:00 +16°C° 0,5 mm 1 m/s 615 mmHg 68%
    20:00 +15°C° 0,5 mm 2 m/s 615 mmHg 73%
    21:00 +14°C° 0,5 mm 2 m/s 615 mmHg 79%
    22:00 +14°C° 0,1 mm 2 m/s 615 mmHg 81%
    23:00 +13°C° 0,1 mm 2 m/s 615 mmHg 83%

    Amanhã, 24 Setembro, Domingo

    Tempo Temperatura Precipitação Vento Pressão Humidade
    00:00 +13°C° 0,1 mm 2 m/s 615 mmHg 85%
    01:00 +13°C° 0 mm 2 m/s 615 mmHg 85%
    02:00 +12°C° 0 mm 2 m/s 615 mmHg 86%
    03:00 +12°C° 0 mm 2 m/s 615 mmHg 87%
    04:00 +10°C° 0 mm 2 m/s 615 mmHg 87%
    05:00 +10°C° 0 mm 2 m/s 615 mmHg 87%
    06:00 +10°C° 0 mm 2 m/s 615 mmHg 87%
    07:00 +13°C° 0 mm 1 m/s 616 mmHg 76%
    08:00 +15°C° 0 mm 1 m/s 617 mmHg 65%
    09:00 +18°C° 0 mm 1 m/s 618 mmHg 54%
    10:00 +19°C° 0 mm 2 m/s 618 mmHg 49%
    11:00 +20°C° 0 mm 2 m/s 618 mmHg 44%
    12:00 +21°C° 0 mm 2 m/s 618 mmHg 39%
    13:00 +21°C° 0,2 mm 2 m/s 618 mmHg 39%
    14:00 +21°C° 0,2 mm 2 m/s 618 mmHg 39%
    15:00 +23°C° 0,2 mm 2 m/s 618 mmHg 39%
    16:00 +19°C° 0,4 mm 2 m/s 617 mmHg 46%
    17:00 +17°C° 0,4 mm 2 m/s 616 mmHg 54%
    18:00 +15°C° 0,4 mm 2 m/s 616 mmHg 62%
    19:00 +15°C° 0,1 mm 2 m/s 616 mmHg 65%
    20:00 +14°C° 0,1 mm 2 m/s 616 mmHg 69%
    21:00 +13°C° 0,1 mm 2 m/s 616 mmHg 73%
    22:00 +13°C° 0 mm 2 m/s 616 mmHg 74%
    23:00 +12°C° 0 mm 2 m/s 616 mmHg 75%

    Depois de amanhã, 25 Setembro, Segunda-feira

    Tempo Temperatura Precipitação Vento Pressão Humidade
    00:00 +12°C° 0 mm 2 m/s 616 mmHg 75%
    01:00 +10°C° 0 mm 2 m/s 616 mmHg 77%
    02:00 +10°C° 0 mm 2 m/s 616 mmHg 79%
    03:00 +9°C° 0 mm 2 m/s 616 mmHg 80%
    04:00 +9°C° 0 mm 2 m/s 616 mmHg 82%
    05:00 +10°C° 0 mm 1 m/s 615 mmHg 83%
    06:00 +10°C° 0 mm 1 m/s 615 mmHg 84%
    07:00 +12°C° 0 mm 1 m/s 616 mmHg 74%
    08:00 +14°C° 0 mm 1 m/s 617 mmHg 64%
    09:00 +18°C° 0 mm 1 m/s 618 mmHg 54%
    10:00 +19°C° 0 mm 1 m/s 618 mmHg 49%
    11:00 +19°C° 0 mm 2 m/s 618 mmHg 44%
    12:00 +20°C° 0 mm 2 m/s 619 mmHg 39%
    13:00 +20°C° 0 mm 2 m/s 618 mmHg 38%
    14:00 +21°C° 0 mm 2 m/s 618 mmHg 37%
    15:00 +21°C° 0 mm 2 m/s 618 mmHg 36%
    16:00 +19°C° 0,1 mm 2 m/s 617 mmHg 43%
    17:00 +17°C° 0,1 mm 2 m/s 617 mmHg 51%
    18:00 +15°C° 0,1 mm 1 m/s 616 mmHg 58%
    19:00 +14°C° 0,1 mm 1 m/s 616 mmHg 64%
    20:00 +13°C° 0,1 mm 2 m/s 616 mmHg 69%
    21:00 +12°C° 0,1 mm 2 m/s 616 mmHg 75%
    22:00 +12°C° 0 mm 2 m/s 616 mmHg 76%
    23:00 +12°C° 0 mm 2 m/s 616 mmHg 78%

    26 Setembro, Terça-feira

    Tempo Temperatura Precipitação Vento Pressão Humidade
    00:00 +10°C° 0 mm 2 m/s 616 mmHg 79%
    01:00 +11°C° 0 mm 1 m/s 616 mmHg 80%
    02:00 +11°C° 0 mm 1 m/s 615 mmHg 80%
    03:00 +10°C° 0 mm 1 m/s 615 mmHg 81%
    04:00 +10°C° 0 mm 1 m/s 615 mmHg 81%
    05:00 +10°C° 0 mm 1 m/s 615 mmHg 81%
    06:00 +9°C° 0 mm 1 m/s 615 mmHg 81%
    07:00 +12°C° 0 mm 1 m/s 616 mmHg 70%
    08:00 +14°C° 0 mm 1 m/s 617 mmHg 59%
    09:00 +16°C° 0 mm 1 m/s 617 mmHg 48%
    10:00 +18°C° 0 mm 2 m/s 618 mmHg 43%
    11:00 +19°C° 0 mm 2 m/s 618 mmHg 38%
    12:00 +20°C° 0 mm 2 m/s 618 mmHg 33%
    13:00 +21°C° 0 mm 2 m/s 618 mmHg 33%
    14:00 +21°C° 0 mm 2 m/s 617 mmHg 34%
    15:00 +21°C° 0 mm 2 m/s 617 mmHg 34%
    16:00 +19°C° 0,2 mm 2 m/s 617 mmHg 43%
    17:00 +17°C° 0,2 mm 2 m/s 616 mmHg 52%
    18:00 +15°C° 0,2 mm 1 m/s 615 mmHg 61%
    19:00 +14°C° 0,5 mm 2 m/s 616 mmHg 67%
    20:00 +14°C° 0,5 mm 2 m/s 616 mmHg 73%
    21:00 +13°C° 0,5 mm 2 m/s 616 mmHg 79%
    22:00 +13°C° 0,1 mm 2 m/s 616 mmHg 80%
    23:00 +13°C° 0,1 mm 2 m/s 616 mmHg 81%

    27 Setembro, Quarta-feira

    Tempo Temperatura Precipitação Vento Pressão Humidade
    00:00 +12°C° 0,1 mm 2 m/s 616 mmHg 82%
    01:00 +12°C° 0,1 mm 2 m/s 615 mmHg 83%
    02:00 +12°C° 0,1 mm 2 m/s 615 mmHg 84%
    03:00 +10°C° 0,1 mm 2 m/s 615 mmHg 85%
    04:00 +10°C° 0,1 mm 2 m/s 615 mmHg 86%
    05:00 +10°C° 0,1 mm 2 m/s 615 mmHg 87%
    06:00 +9°C° 0,1 mm 2 m/s 615 mmHg 88%
    07:00 +12°C° 0,1 mm 1 m/s 615 mmHg 79%
    08:00 +13°C° 0,1 mm 1 m/s 616 mmHg 70%
    09:00 +15°C° 0,1 mm 1 m/s 616 mmHg 62%
    10:00 +16°C° 0 mm 2 m/s 617 mmHg 57%
    11:00 +17°C° 0 mm 2 m/s 617 mmHg 52%
    12:00 +19°C° 0 mm 3 m/s 617 mmHg 47%
    13:00 +19°C° 0,1 mm 3 m/s 617 mmHg 47%
    14:00 +19°C° 0,1 mm 2 m/s 616 mmHg 48%
    15:00 +19°C° 0,1 mm 2 m/s 616 mmHg 48%
    16:00 +17°C° 0,2 mm 2 m/s 615 mmHg 56%
    17:00 +15°C° 0,2 mm 2 m/s 615 mmHg 64%
    18:00 +14°C° 0,2 mm 2 m/s 614 mmHg 72%
    19:00 +13°C° 0,2 mm 2 m/s 614 mmHg 76%
    20:00 +13°C° 0,2 mm 2 m/s 615 mmHg 79%
    21:00 +12°C° 0,2 mm 2 m/s 615 mmHg 82%
    22:00 +12°C° 0,1 mm 2 m/s 615 mmHg 84%
    23:00 +10°C° 0,1 mm 2 m/s 614 mmHg 85%

    28 Setembro, Quinta-feira

    Tempo Temperatura Precipitação Vento Pressão Humidade
    00:00 +10°C° 0,1 mm 2 m/s 614 mmHg 86%
    01:00 +10°C° 0 mm 2 m/s 614 mmHg 87%
    02:00 +9°C° 0 mm 2 m/s 614 mmHg 88%
    03:00 +9°C° 0 mm 2 m/s 614 mmHg 89%
    04:00 +10°C° 0 mm 1 m/s 614 mmHg 88%
    05:00 +10°C° 0 mm 1 m/s 614 mmHg 88%
    06:00 +9°C° 0 mm 1 m/s 614 mmHg 88%
    07:00 +11°C° 0 mm 1 m/s 614 mmHg 79%
    08:00 +13°C° 0 mm 1 m/s 615 mmHg 70%
    09:00 +14°C° 0 mm 1 m/s 616 mmHg 62%
    10:00 +15°C° 0 mm 2 m/s 616 mmHg 59%
    11:00 +16°C° 0 mm 2 m/s 616 mmHg 56%
    12:00 +17°C° 0 mm 2 m/s 616 mmHg 53%
    13:00 +17°C° 0,2 mm 2 m/s 616 mmHg 55%
    14:00 +16°C° 0,2 mm 2 m/s 616 mmHg 56%
    15:00 +16°C° 0,2 mm 2 m/s 615 mmHg 58%
    16:00 +15°C° 0,1 mm 2 m/s 615 mmHg 65%
    17:00 +14°C° 0,1 mm 2 m/s 615 mmHg 72%
    18:00 +11°C° 0,1 mm 3 m/s 615 mmHg 79%
    19:00 +11°C° 0,1 mm 3 m/s 615 mmHg 81%
    20:00 +10°C° 0,1 mm 3 m/s 615 mmHg 83%
    21:00 +10°C° 0,1 mm 3 m/s 615 mmHg 84%
    22:00 +10°C° 0,1 mm 2 m/s 615 mmHg 85%
    23:00 +9°C° 0,1 mm 2 m/s 615 mmHg 85%
    Mostrar mais